Location: Borgo
(42.3939°N, 9.2791°E)
Time: 21:01:42
(UTC+00:00)

USA 267 - Pass Details

Date: 24 January 2021
Orbit: 1099 x 1108 km, 123.0° (Epoch: 03 March)

Event Time Altitude Azimuth Distance (km) Brightness Sun altitude
Exits shadow 18:41:56 41° 128° (SE) 1,548 3.7 -24.9°
Maximum altitude 18:42:00 41° 129° (SE) 1,548 3.7 -24.9°
Drops below altitude 10° 18:48:05 10° 198° (SSW) 2,951 5.7 -26.0°
Sets 18:50:43 0° 205° (SSW) 3,907 6.5 -26.5°
